sat.trackr.live / text

‹ back to catalog

TIANHUI 2-01A

NORAD 44207 · 2019-024A

PAYLOAD ACTIVE UNKNOWN

§ Identity

Operator
Country
PRC
Launch date
2019-04-29
Launch site
TAISC
Launch vehicle
Mass (kg)
RCS (m²)

External: N2YO · Heavens-Above · Gunter

§ Orbital elements

Epoch: 2026-09-19T12:00:17.446752Z

Period
94.94 min
Inclination
97.4852°
Eccentricity
0.0001549
Mean motion
15.16759886 rev/d
Perigee alt
514.6 km
Apogee alt
516.7 km
Semi-major
6,893.8 km
B*
6.0392e-5
RAAN
265.2033°
Arg perigee
103.7857°
Mean anomaly
256.3548°
Rev number
11,643

§ Raw data

TIANHUI 2-01A1 44207U 19024A   26262.50020193  .00001118  00000+0  60392-4 0  99952 44207  97.4852 265.2033 0001549 103.7857 256.3548 15.16759886116439

JSON: /api/v1/satellites/44207 · /tle

For live sub-satellite position, see the globe view (requires WebGL).

§ Visibility from observer

Set your observer location to see the next 7 days of passes ≥ 10°. The values pass through the URL so the page stays shareable.

No JS? Fill the form by hand. The geolocation button needs JavaScript.